Home > Time Zones > World Clock > Weather > Russia > Ufa > Past weeks

Flag for Russia Weather past 2 weeks in Ufa, Russia

28 °F

Low clouds.

Feels Like: 22 °F
Forecast: 23 / 28 °F
Wind: 6 mph from Southwest

Location: Ufa

Current Time: Nov 29, 2015 at 2:20:42 PM

Latest Report: Nov 29, 2015 at 2:00 PM

Visibility: N/A

Pressure: 30.12 "Hg

Humidity: 86%

Dew point: 25 °F

Location of UfaLocation

Historic Weather in Ufa — Graph


Ufa temperature yesterday

Maximum temperature yesterday: 28 °F (at 11:00 PM)
Minimum temperature yesterday: 23 °F (at 6:30 AM)
Average temperature yesterday: 25 °F

Past Weeks' High & Low Weather Summary

High39 °F (Nov 24, 9:30 AM)100% (Nov 24, 12:00 AM)30.36 "Hg (Nov 24, 12:00 AM)
Low1 °F (Nov 20, 6:00 AM)54% (Nov 19, 1:00 PM)29.56 "Hg (Nov 27, 3:00 PM)
Average26 °F82%30.07 "Hg
* Reported Nov 14 1:00 PM — Nov 29 1:30 PM, Ufa, Weather by CustomWeather, © 2015

Note: Actual official high and low records may vary slightly from our data, if they occured in-between our weather recording intervals... More about our weather records


Ufa weather history for previous 24 hours

Time TempWeatherWind HumidityBarometerVisibility
1:30 PM
Sun, Nov 29
28 °FLow clouds.8 mph86%30.12 "HgN/A
1:00 PM27 °FLow clouds.8 mph93%30.12 "HgN/A
11:30 AM27 °FIce fog.10 mph93%30.12 "Hg2 mi
11:00 AM27 °FIce fog.8 mph93%30.12 "Hg2 mi
10:00 AM27 °FIce fog.8 mph93%30.09 "Hg2 mi
9:30 AM27 °FIce fog.8 mph93%30.09 "Hg2 mi
9:00 AM27 °FIce fog.8 mph93%30.09 "Hg2 mi
8:30 AM27 °FIce fog.10 mph93%30.09 "Hg3 mi
8:00 AM27 °FIce fog.8 mph93%30.07 "Hg3 mi
7:30 AM27 °FIce fog.10 mph93%30.07 "Hg3 mi
7:00 AM27 °FIce fog.8 mph93%30.07 "Hg3 mi
6:30 AM27 °FIce fog.8 mph93%30.07 "Hg2 mi
6:00 AM27 °FIce fog.8 mph93%30.04 "Hg2 mi
5:30 AM27 °FIce fog.10 mph93%30.04 "Hg1 mi
5:00 AM27 °FIce fog.8 mph93%30.04 "Hg1 mi
4:30 AM27 °FIce fog.6 mph93%30.04 "Hg1 mi
4:00 AM27 °FLight freezing rain. Ice fog.6 mph93%30.04 "Hg2 mi
3:00 AM27 °FLight freezing rain. Ice fog.6 mph93%30.04 "Hg3 mi
2:30 AM27 °FLight freezing rain. Ice fog.6 mph93%30.04 "Hg3 mi
2:00 AM27 °FLight freezing rain. Ice fog.6 mph93%30.04 "Hg1 mi
1:30 AM27 °FLight freezing rain. Ice fog.8 mph93%30.01 "Hg1 mi
1:00 AM27 °FLight freezing rain. Ice fog.8 mph93%30.01 "Hg2 mi
12:30 AM27 °FOvercast.8 mph86%30.01 "HgN/A
12:00 AM27 °FOvercast.10 mph93%30.01 "HgN/A
11:30 PM
Sat, Nov 28
28 °FOvercast.8 mph86%30.01 "HgN/A
11:00 PM28 °FOvercast.8 mph86%30.01 "HgN/A
10:30 PM27 °FOvercast.10 mph86%29.98 "HgN/A
10:00 PM27 °FOvercast.8 mph86%29.98 "HgN/A
9:30 PM27 °FOvercast.8 mph86%29.98 "HgN/A
9:00 PM27 °FOvercast.8 mph86%29.98 "HgN/A
8:30 PM27 °FOvercast.3 mph86%29.98 "HgN/A
8:00 PM27 °FOvercast.3 mph86%29.98 "HgN/A
7:30 PM27 °FOvercast.3 mph86%29.95 "HgN/A
7:00 PM27 °FOvercast.6 mph86%29.98 "HgN/A
6:30 PM27 °FOvercast.6 mph80%29.95 "HgN/A
6:00 PM27 °FOvercast.8 mph80%29.95 "HgN/A
5:30 PM27 °FOvercast.6 mph80%29.92 "HgN/A
5:00 PM27 °FLight snow. Overcast.6 mph86%29.92 "HgN/A
4:30 PM25 °FLight snow. Overcast.6 mph93%29.92 "Hg2 mi
4:00 PM25 °FLight snow. Overcast.6 mph86%29.92 "HgN/A
3:30 PM25 °FLight snow. Overcast.6 mph93%29.89 "HgN/A
3:00 PM27 °FLight snow. Overcast.6 mph80%29.89 "HgN/A
2:30 PM27 °FOvercast.8 mph80%29.89 "HgN/A
2:00 PM27 °FOvercast.6 mph80%29.89 "HgN/A
Weather by CustomWeather, © 2015

See weather overviewHow to use our weather pages